Wetbulb
74.60 74.17 74.07 73.98 74.39 74.70 74.37 74.74 75.11 76.21 76.33 75.82 76.51 76.39 76.68 76.90 77.48 77.60 77.98 76.59 76.51 76.29 75.89 75.85 75.90 76.89 74.06 75.13 74.68 74.56 73.68 73.23 70.78 71.47 72.97 75.42 77.25 77.48 77.64 78.16 78.19 78.36 77.40
74.97 74.16 73.70 73.90 73.63 73.72 73.93 74.31 75.22 75.89 76.87 76.81 76.97 77.22 77.49 77.28 77.83 77.24 76.95 75.54 75.72 75.02 75.51 75.52 75.39 75.02 76.74 76.63 74.38 75.32 74.56 75.13 73.03 72.74 75.11 74.13 76.09 77.23 78.02 78.23 77.23 76.42 76.84
74.48 73.84 73.03 73.20 73.21 72.78 73.56 74.41 75.00 75.98 76.32 76.64 77.00 77.01 77.12 76.79 76.88 76.88 76.94 76.60 75.99 75.82 75.64 75.51 75.13 75.41 75.42 74.98 75.19 74.27 74.13 74.59 75.16 73.19 72.48 73.88 74.81 75.65 76.34 77.73 77.70 77.76 77.18
74.25 73.76 73.12 72.95 73.04 72.73 73.74 74.54 75.34 76.73 76.21 76.18 76.73 77.05 76.73 77.16 76.91 76.27 76.27 76.69 75.88 75.29 75.60 75.76 75.57 75.45 75.72 75.69 75.35 75.77 75.55 74.65 75.04 73.32 72.90 73.24 73.89 76.87 75.83 74.22 74.21 75.47 75.54
74.02 73.60 73.42 74.64 74.13 74.51 75.18 75.07 75.72 76.30 76.55 76.66 76.09 76.31 75.86 75.45 75.63 76.36 76.34 75.86 75.76 75.33 75.35 75.79 76.07 75.38 72.44 72.76 74.63 75.72 76.17 74.62 73.44 72.72 72.60 72.73 72.82 73.60 75.17 76.75 73.50 73.69 76.22
74.38 74.44 74.88 74.65 74.35 74.06 75.36 75.50 75.78 75.63 76.02 76.39 76.03 75.17 74.89 74.52 68.46 68.65 72.09 75.93 76.06 75.23 75.37 76.03 76.22 74.02 73.33 69.78 69.19 69.18 72.17 75.48 74.51 73.60 72.46 73.13 75.47 76.32 77.32 76.97 75.54 72.34 71.05
74.52 75.06 75.08 75.52 74.99 74.72 75.04 75.28 75.64 75.56 76.75 75.83 75.26 75.00 74.37 75.56 66.05 66.48 67.92 71.55 73.29 75.13 74.91 74.43 75.04 74.70 73.25 75.37 70.74 67.71 68.07 66.95 68.52 75.25 74.19 74.88 74.52 76.97 76.47 75.63 75.81 75.27 72.45
74.65 74.79 75.01 75.45 75.43 75.84 75.56 75.34 75.65 75.67 75.20 74.87 74.32 74.25 73.96 74.32 65.25 63.95 65.79 72.06 72.63 73.99 75.01 75.53 75.70 75.88 75.48 74.95 75.03 74.83 75.15 75.29 75.08 75.23 75.79 75.03 75.91 76.08 76.32 75.83 75.06 75.06 75.31
74.48 74.65 75.21 75.53 75.45 75.92 75.41 75.18 75.84 75.69 74.94 74.56 73.48 71.77 71.88 71.61 63.43 62.81 66.41 72.40 73.82 75.20 76.01 76.15 75.85 75.36 67.85 66.95 74.04 73.49 73.85 73.82 70.59 66.83 65.90 65.18 65.15 65.24 67.52 72.44 71.76 71.77 70.34
74.79 75.09 75.95 74.64 75.98 76.16 76.53 75.95 74.01 74.75 74.05 72.13 72.45 71.93 68.07 71.76 66.44 61.56 65.90 74.35 74.57 73.67 74.43 74.71 68.83 70.83 63.13 62.77 73.51 72.35 70.94 71.06 71.65 72.65 72.44 70.11 68.90 71.58 66.23 71.25 72.47 70.08 71.22
75.79 75.97 75.73 76.36 75.92 76.28 72.95 75.49 74.90 74.84 74.65 73.60 72.16 73.59 73.92 74.25 74.81 60.47 60.37 73.87 71.70 70.15 71.04 71.15 72.20 63.22 60.43 59.05 59.63 72.90 70.28 70.58 70.00 70.62 70.00 69.68 70.02 70.87 71.87 73.35 73.92 72.85 70.78
75.70 75.80 75.42 76.13 75.20 74.74 70.21 68.38 70.60 71.76 73.88 73.84 73.14 73.40 75.25 75.75 63.17 59.57 57.94 58.40 64.59 71.79 71.49 71.22 71.39 60.29 58.14 57.57 60.90 61.47 59.38 60.14 68.14 68.91 68.50 67.60 67.69 68.38 69.42 72.84 73.94 73.07 71.14
75.47 74.62 74.94 74.97 74.95 74.28 70.67 70.46 69.43 70.21 72.23 72.08 72.19 71.74 71.93 73.29 72.72 57.90 57.55 57.63 57.94 69.03 71.65 64.79 58.88 57.57 56.19 57.94 56.65 57.13 56.65 66.03 68.23 67.75 66.60 66.46 67.29 68.38 70.76 71.33 71.98 71.44 70.76
75.09 75.04 74.79 73.75 72.91 74.07 73.05 72.47 72.90 73.15 71.64 72.38 71.11 71.42 72.00 70.15 70.78 72.02 70.07 68.69 61.72 65.76 63.92 68.09 64.24 60.57 57.16 61.36 62.61 62.88 67.19 67.62 66.92 66.21 65.79 66.62 67.53 67.68 67.55 69.60 69.21 69.76 67.78
75.45 75.16 74.99 74.63 74.75 76.72 74.90 72.82 73.15 75.37 71.37 73.51 72.68 71.09 68.49 69.12 70.00 65.66 64.45 70.64 70.61 64.13 65.10 68.78 68.24 67.52 66.97 66.84 66.91 67.09 67.31 67.04 66.22 66.18 65.36 65.08 65.38 66.60 65.32 68.23 68.17 68.52 66.57
74.77 74.91 74.75 74.77 76.69 73.53 72.82 71.16 50.52 52.25 48.02 47.32 47.88 60.49 69.77 55.10 49.26 48.35 47.08 46.34 47.79 49.74 64.45 66.95 66.76 66.40 65.33 64.91 65.33 65.91 66.49 65.11 65.40 66.36 66.13 66.56 65.70 65.81 66.78 68.17 68.00 67.86 65.79
77.24 75.03 74.67 75.27 73.28 73.09 72.75 72.01 70.93 59.02 47.53 45.71 45.94 47.23 48.68 46.94 45.18 44.47 44.34 45.96 47.81 50.71 65.34 66.55 66.25 65.61 64.84 63.53 61.67 62.58 62.98 65.95 67.43 65.88 65.80 65.99 66.00 63.54 63.56 65.62 65.54 65.42 64.29
75.85 62.39 76.45 74.26 74.26 74.39 73.56 73.64 72.50 70.48 68.38 68.38 49.55 51.20 43.57 43.32 43.37 43.39 44.13 47.51 63.29 59.92 65.88 65.82 65.19 65.04 64.06 62.22 62.14 63.30 62.92 63.92 64.93 64.86 64.84 65.02 64.94 64.61 64.39 64.14 63.92 63.43 62.78
73.35 73.12 74.47 73.78 73.58 71.35 72.80 72.25 69.92 69.79 69.78 70.30 66.27 55.06 48.52 42.41 42.89 43.98 44.69 63.32 66.46 66.34 66.37 65.29 64.90 63.94 64.03 63.49 64.14 64.07 64.43 63.23 62.95 63.07 62.29 62.45 62.91 62.48 61.88 61.78 61.65 53.92 55.39
72.51 67.41 69.99 72.93 72.58 71.93 71.29 69.32 69.32 70.23 69.83 69.54 67.20 67.00 61.89 57.58 62.66 63.95 63.55 65.85 66.34 66.11 65.14 64.98 64.74 65.25 64.39 63.27 63.14 62.37 61.33 61.17 62.16 61.72 61.54 61.61 61.47 61.55 60.48 60.17 59.43 57.68 56.81
72.10 70.74 67.30 72.38 72.09 70.95 69.14 69.80 70.03 69.34 67.64 66.72 66.72 66.84 56.32 65.52 65.59 65.94 66.25 66.52 66.25 65.79 65.99 65.88 64.65 64.98 63.12 62.26 61.76 61.09 59.84 60.74 60.41 60.84 59.86 60.12 60.33 59.25 59.11 58.93 57.93 57.26 55.61
72.87 70.38 71.54 71.14 70.89 69.03 69.84 70.09 68.76 67.27 66.49 66.43 66.89 63.01 48.98 64.62 66.49 66.63 66.87 67.07 66.81 67.35 67.35 66.50 65.36 65.43 64.53 61.73 61.29 60.41 59.87 59.95 60.52 60.73 60.73 59.02 59.10 59.21 58.54 57.75 57.12 56.01 55.67
72.29 71.56 71.37 70.18 69.81 65.73 68.81 68.49 67.37 66.71 66.62 66.38 66.48 65.63 64.65 65.37 66.46 66.84 66.84 66.79 67.35 66.96 67.35 66.22 66.19 65.37 66.67 63.79 62.98 61.64 60.55 60.12 61.66 62.07 60.67 59.58 59.00 58.87 58.35 57.49 57.10 56.99 57.39
67.13 66.75 69.81 69.04 69.43 69.54 68.71 67.71 66.56 61.13 66.21 66.54 66.83 66.96 66.68 66.74 66.84 66.70 66.73 67.05 67.25 67.07 67.14 65.68 66.10 65.17 64.97 65.22 65.35 64.62 63.76 62.64 62.53 61.63 61.95 61.17 60.28 58.26 59.52 59.42 59.63 58.73 58.14
69.00 66.63 65.24 64.87 66.47 68.11 66.88 66.73 66.43 66.74 66.53 67.07 67.23 67.36 67.68 67.39 66.96 66.76 66.73 67.22 66.77 66.43 66.18 65.53 65.42 64.67 64.00 63.37 64.50 64.14 51.54 44.62 59.09 50.69 63.41 63.28 62.63 62.19 61.41 61.07 60.86 60.59 58.83
69.21 67.83 66.16 64.83 64.60 64.09 65.06 66.37 66.63 66.67 66.54 67.13 67.54 67.81 67.76 67.37 67.09 66.94 66.99 66.79 66.20 65.92 65.81 65.43 65.32 64.50 63.33 63.69 63.76 48.99 38.20 39.65 53.16 40.36 61.73 62.52 61.54 60.59 60.49 60.20 60.19 58.81 59.71
MSLP
1010.22 1010.93 1011.66 1012.31 1012.85 1013.35 1013.53 1013.96 1014.14 1014.33 1014.57 1014.75 1014.91 1015.03 1015.32 1015.52 1015.73 1016.06 1016.16 1015.87 1016.23 1016.20 1016.25 1016.38 1016.44 1016.40 1015.94 1015.66 1015.98 1015.69 1015.53 1015.46 1015.13 1014.65 1014.46 1014.86 1015.46 1015.46 1015.19 1015.30 1015.40 1015.19 1014.79
1009.62 1010.48 1011.27 1011.93 1012.35 1012.73 1013.14 1013.49 1013.85 1014.00 1014.31 1014.52 1014.76 1014.91 1015.06 1015.22 1015.35 1015.60 1015.80 1015.38 1015.70 1015.78 1015.87 1016.08 1016.08 1015.78 1015.95 1015.96 1015.66 1015.67 1015.37 1015.28 1015.28 1014.99 1014.87 1014.82 1014.96 1014.97 1015.04 1015.23 1014.91 1014.31 1014.19
1009.37 1010.03 1010.65 1011.40 1011.92 1012.19 1012.62 1013.10 1013.48 1013.79 1014.02 1014.15 1014.43 1014.55 1014.63 1015.01 1015.15 1015.24 1015.24 1015.31 1015.34 1015.62 1015.52 1015.51 1015.61 1015.66 1015.63 1015.42 1015.37 1015.19 1014.96 1014.98 1015.11 1015.08 1014.63 1014.38 1014.19 1014.45 1014.38 1014.49 1014.57 1014.24 1014.10
1008.84 1009.50 1010.03 1010.61 1011.13 1011.50 1011.96 1012.58 1013.03 1013.55 1013.77 1013.87 1014.05 1014.23 1014.44 1014.67 1014.85 1014.78 1014.82 1014.96 1014.94 1014.95 1015.12 1015.16 1015.17 1015.14 1015.19 1015.31 1015.28 1015.22 1015.21 1015.17 1014.83 1014.83 1014.53 1014.19 1014.20 1014.14 1014.00 1013.92 1013.68 1013.37 1012.86
1008.35 1009.00 1009.49 1010.09 1010.74 1011.27 1011.58 1012.13 1012.67 1013.14 1013.46 1013.88 1013.94 1014.17 1014.28 1014.26 1014.16 1014.44 1014.62 1014.70 1014.67 1014.65 1014.69 1014.76 1014.82 1014.77 1015.02 1015.25 1015.14 1014.72 1014.97 1015.24 1014.81 1014.48 1014.72 1014.10 1013.76 1013.47 1013.88 1014.16 1013.65 1012.95 1012.41
1007.84 1008.33 1009.06 1009.80 1010.34 1010.90 1011.47 1011.97 1012.36 1012.67 1013.11 1013.43 1013.81 1013.76 1013.93 1013.97 1013.97 1014.48 1014.90 1014.90 1014.75 1014.60 1014.51 1014.71 1014.64 1014.63 1014.81 1015.03 1015.12 1015.22 1015.37 1015.33 1015.23 1015.02 1014.39 1014.10 1014.04 1014.09 1014.09 1014.10 1013.92 1013.07 1012.56
1007.18 1007.90 1008.62 1009.45 1009.99 1010.46 1011.04 1011.56 1011.91 1012.21 1012.71 1013.13 1013.27 1013.33 1013.61 1013.78 1014.21 1014.64 1014.89 1014.80 1014.58 1014.58 1014.50 1014.45 1014.32 1013.83 1014.14 1014.22 1014.44 1014.81 1014.86 1014.79 1014.85 1014.76 1014.63 1014.41 1014.30 1014.14 1014.22 1013.95 1013.77 1013.58 1012.94
1006.62 1007.52 1008.17 1008.84 1009.40 1009.95 1010.46 1010.84 1011.47 1011.82 1012.03 1012.25 1012.63 1013.02 1013.31 1013.50 1014.04 1014.47 1014.65 1014.54 1014.17 1013.99 1013.94 1013.97 1013.87 1013.85 1013.88 1014.08 1014.07 1013.87 1013.85 1013.71 1013.89 1014.15 1014.08 1014.17 1014.25 1014.17 1014.01 1014.02 1013.75 1013.30 1013.03
1005.96 1006.79 1007.58 1008.29 1008.78 1009.42 1009.73 1010.01 1010.49 1010.92 1011.58 1012.05 1012.37 1012.78 1013.17 1013.41 1013.96 1014.26 1014.52 1013.81 1013.53 1013.44 1013.46 1013.58 1013.55 1013.64 1013.76 1014.15 1014.08 1013.67 1013.50 1013.24 1012.97 1013.57 1013.99 1014.30 1014.37 1014.29 1014.22 1013.88 1012.88 1012.44 1012.15
1005.28 1005.96 1006.82 1007.63 1008.06 1008.32 1009.09 1009.64 1010.02 1010.58 1011.06 1011.58 1011.91 1012.21 1012.75 1012.90 1013.23 1013.70 1014.10 1013.23 1013.09 1012.90 1012.58 1012.91 1013.38 1013.60 1014.05 1014.24 1014.08 1013.46 1013.19 1012.99 1012.93 1013.26 1013.44 1013.51 1013.54 1013.08 1013.58 1013.55 1012.73 1012.38 1012.23
1005.05 1005.69 1006.48 1006.95 1007.51 1008.31 1009.79 1009.72 1010.97 1010.24 1010.50 1011.25 1011.47 1011.66 1012.09 1012.33 1012.82 1013.41 1013.66 1013.37 1012.66 1012.35 1012.18 1012.03 1012.13 1013.25 1013.98 1014.34 1014.37 1013.79 1013.76 1013.70 1013.52 1013.44 1012.92 1012.57 1012.28 1012.32 1012.14 1011.61 1012.27 1012.41 1012.43
1004.70 1005.41 1006.10 1006.65 1007.47 1008.78 1009.40 1010.03 1010.53 1010.75 1011.00 1011.11 1011.20 1011.22 1011.91 1012.29 1012.80 1013.26 1013.42 1013.47 1013.11 1012.68 1012.11 1011.73 1012.72 1013.46 1013.97 1014.17 1014.19 1013.97 1014.02 1014.02 1013.43 1012.61 1011.97 1011.52 1011.31 1011.15 1011.28 1011.47 1011.75 1011.96 1012.42
1004.25 1004.93 1005.65 1006.47 1007.27 1008.35 1009.37 1009.50 1009.55 1010.39 1011.23 1011.06 1010.89 1010.71 1010.75 1011.50 1012.24 1013.15 1013.51 1013.54 1013.35 1013.08 1012.19 1012.64 1013.13 1013.50 1013.71 1013.70 1013.53 1013.73 1013.82 1013.39 1012.45 1011.70 1011.20 1010.97 1010.80 1010.71 1011.33 1011.39 1011.60 1011.86 1012.05
1003.81 1004.45 1005.28 1006.17 1007.25 1008.14 1008.88 1009.23 1009.07 1009.76 1010.21 1010.64 1010.72 1010.25 1010.16 1010.69 1011.26 1012.23 1012.97 1013.34 1013.48 1013.21 1012.91 1012.76 1012.82 1012.99 1012.97 1012.86 1012.87 1012.95 1012.74 1011.95 1011.53 1011.34 1011.10 1010.86 1010.71 1010.68 1010.46 1010.72 1010.97 1011.37 1011.52
1003.53 1003.88 1004.45 1005.08 1005.92 1006.85 1007.37 1007.75 1007.89 1008.46 1009.34 1010.00 1009.82 1009.66 1010.11 1010.67 1011.06 1011.49 1012.11 1012.19 1012.05 1012.40 1012.51 1012.02 1011.74 1011.60 1011.56 1011.55 1011.44 1011.47 1011.56 1011.51 1011.34 1011.37 1011.27 1011.07 1011.02 1010.87 1011.38 1011.40 1011.38 1011.03 1010.86
1002.99 1003.27 1003.65 1004.13 1005.26 1005.49 1006.77 1008.14 1008.93 1009.04 1009.72 1010.30 1010.25 1010.32 1010.55 1011.51 1011.97 1012.14 1012.56 1012.85 1012.88 1012.91 1012.48 1011.72 1011.37 1011.45 1011.73 1011.75 1011.38 1011.25 1011.25 1011.55 1011.56 1011.59 1011.16 1010.94 1011.03 1010.88 1010.63 1010.84 1011.05 1010.89 1010.27
1002.51 1002.65 1003.17 1004.20 1004.41 1004.75 1006.01 1006.89 1008.14 1010.05 1010.20 1010.39 1010.75 1011.10 1011.63 1012.34 1012.51 1012.89 1013.17 1013.26 1013.19 1013.02 1012.26 1011.24 1010.93 1011.06 1011.21 1012.04 1012.50 1012.35 1012.31 1011.77 1011.88 1011.66 1011.31 1011.10 1011.13 1011.15 1010.89 1010.30 1010.11 1010.12 1010.37
1003.03 1003.01 1003.33 1003.34 1003.95 1004.92 1005.85 1006.50 1006.83 1008.01 1008.99 1010.06 1011.24 1011.53 1012.10 1012.38 1012.82 1013.24 1013.49 1013.23 1012.88 1012.63 1011.88 1011.22 1010.96 1010.93 1011.48 1012.14 1012.38 1012.28 1012.41 1012.03 1011.71 1011.54 1011.35 1011.12 1011.00 1010.87 1010.53 1010.37 1010.61 1010.73 1010.97
1002.72 1002.58 1003.13 1003.24 1003.75 1004.12 1004.69 1005.38 1005.86 1006.54 1007.19 1007.87 1009.95 1011.30 1012.24 1012.54 1012.87 1013.29 1013.34 1012.44 1011.40 1010.87 1010.60 1010.60 1010.65 1010.99 1011.27 1011.50 1011.51 1011.79 1011.88 1011.92 1011.90 1011.75 1011.67 1011.50 1011.40 1011.36 1011.28 1011.20 1011.23 1011.47 1011.53
1002.79 1002.24 1002.83 1003.27 1003.63 1003.91 1004.22 1004.80 1005.21 1005.65 1006.28 1006.96 1007.95 1008.74 1010.80 1011.67 1011.76 1011.96 1011.88 1011.35 1010.92 1010.57 1010.38 1010.41 1010.69 1010.90 1011.34 1011.69 1011.67 1011.84 1011.91 1011.91 1011.70 1011.73 1011.58 1011.58 1011.70 1011.62 1011.55 1011.46 1011.52 1011.64 1011.75
1002.20 1003.21 1003.30 1003.50 1003.54 1003.73 1004.06 1004.50 1004.83 1005.52 1006.03 1006.48 1007.22 1008.20 1009.49 1010.06 1009.83 1009.89 1009.80 1010.03 1010.11 1009.82 1009.87 1010.23 1010.68 1011.07 1011.40 1011.64 1011.69 1011.79 1011.92 1011.62 1011.56 1011.65 1011.77 1011.70 1011.67 1011.69 1011.89 1011.75 1011.64 1011.69 1012.04
1002.67 1003.33 1003.49 1003.61 1003.72 1003.86 1004.06 1004.56 1004.89 1005.23 1005.53 1006.32 1007.18 1009.24 1010.03 1009.59 1009.11 1009.14 1009.12 1009.19 1009.43 1009.71 1009.95 1010.35 1010.48 1010.37 1010.82 1011.26 1011.33 1011.40 1011.37 1011.27 1011.21 1011.32 1011.43 1011.74 1011.85 1011.68 1011.65 1011.59 1011.63 1011.85 1012.04
1002.76 1003.01 1003.32 1003.32 1003.72 1004.26 1004.66 1004.69 1004.80 1005.05 1005.49 1006.18 1006.89 1007.91 1008.85 1008.63 1008.31 1008.48 1008.60 1008.87 1009.17 1009.47 1009.72 1010.11 1010.18 1010.34 1010.58 1010.79 1010.83 1010.91 1010.89 1010.74 1010.55 1010.77 1010.94 1011.19 1011.39 1011.48 1011.52 1011.51 1011.35 1011.38 1011.52
1003.51 1003.16 1003.25 1003.56 1004.05 1004.21 1004.39 1004.58 1004.84 1005.11 1005.28 1005.77 1006.22 1006.68 1007.19 1007.47 1007.53 1007.84 1008.23 1008.45 1008.85 1009.19 1009.47 1009.84 1009.87 1010.02 1010.22 1010.09 1009.91 1009.84 1010.04 1010.33 1010.40 1010.54 1010.55 1010.57 1010.62 1011.25 1011.11 1010.67 1010.77 1011.07 1011.06
1003.12 1004.03 1004.37 1004.51 1004.81 1004.63 1004.45 1004.34 1004.47 1004.95 1005.19 1005.52 1005.78 1006.21 1006.65 1006.94 1007.16 1007.46 1007.88 1008.25 1008.56 1008.86 1009.10 1009.42 1009.46 1009.76 1009.93 1009.91 1009.76 1009.84 1010.64 1010.83 1010.22 1010.41 1010.01 1010.14 1010.26 1010.36 1010.34 1010.42 1010.38 1010.72 1011.13
1002.68 1003.47 1003.93 1004.36 1004.66 1004.70 1004.72 1004.36 1004.18 1004.60 1004.84 1005.25 1005.60 1005.88 1006.24 1006.77 1007.00 1007.32 1007.68 1007.99 1008.27 1008.40 1008.72 1008.93 1009.05 1009.60 1009.74 1009.71 1009.77 1010.73 1011.16 1011.06 1010.79 1010.87 1009.93 1010.04 1010.14 1010.21 1010.31 1010.10 1010.16 1009.96 1009.80
Wind_Speed
15 13 13 13 12 11 10 10 9 9 9 10 10 10 9 9 9 8 7 4 6 5 5 5 6 4 7 7 7 6 6 7 8 8 6 5 5 8 7 6 8 8 7
14 14 14 14 13 13 11 11 10 9 9 10 10 9 8 9 8 9 10 10 10 9 8 7 8 7 7 7 7 7 8 7 8 9 8 8 8 6 7 8 8 9 8
13 14 14 15 14 13 13 11 11 9 9 9 10 10 8 7 7 8 9 10 8 10 9 9 9 9 9 9 7 7 8 9 9 10 9 8 8 6 8 9 8 9 8
16 15 15 15 16 15 14 13 12 10 10 10 10 9 9 7 7 7 7 8 9 9 10 10 10 11 11 10 10 9 9 9 9 9 10 9 8 8 8 9 9 9 8
16 16 16 14 14 13 13 13 12 11 10 8 8 8 8 8 9 10 8 8 9 9 10 10 12 11 6 7 9 8 8 8 9 8 8 11 10 9 7 7 10 10 7
17 17 15 14 14 14 13 12 12 12 11 9 9 9 9 8 5 3 4 7 8 10 10 9 11 8 9 11 11 11 11 10 11 10 10 11 10 8 8 7 8 9 10
17 16 15 14 14 14 13 13 13 12 9 10 10 9 10 9 7 7 5 7 8 6 8 8 9 8 7 10 9 11 11 12 14 11 12 11 12 11 9 10 10 8 11
16 15 15 15 14 14 14 13 11 10 11 10 9 8 7 7 7 7 9 9 8 10 9 10 9 10 8 7 10 10 10 9 10 8 10 11 10 10 9 9 11 11 9
16 16 15 15 14 14 14 14 12 11 10 10 8 6 7 6 10 10 9 10 11 10 9 9 9 9 1 4 8 10 9 10 6 6 1 5 8 7 8 9 11 10 11
16 17 16 14 16 16 15 12 10 12 11 7 8 8 8 9 7 9 8 8 9 9 7 7 10 8 6 4 7 9 9 8 7 9 8 8 10 9 10 9 10 10 10
15 15 15 15 14 13 10 6 9 8 7 10 10 8 11 11 7 6 7 8 6 5 5 5 3 9 6 4 5 7 6 7 6 8 9 8 8 7 9 8 8 8 7
16 15 16 15 13 11 11 3 7 4 6 7 9 8 6 8 2 7 5 9 7 7 7 6 6 7 5 7 6 1 1 4 8 9 10 9 9 8 8 3 5 4 2
16 16 14 13 12 14 8 8 7 6 8 8 8 10 8 7 6 6 5 6 8 7 5 5 7 5 6 8 13 7 8 8 10 11 10 10 9 8 6 8 5 3 5
15 16 14 14 15 15 13 13 10 10 11 8 9 9 8 6 7 8 6 6 4 7 5 6 2 5 7 7 5 10 9 9 8 9 10 9 9 8 8 6 6 5 5
14 14 15 13 14 13 14 11 12 9 6 9 10 7 7 8 8 4 1 6 5 3 3 6 6 6 7 7 7 7 7 7 7 6 7 7 6 7 7 6 7 6 6
13 12 11 11 9 11 11 8 14 12 11 8 9 6 6 9 8 9 8 9 9 6 5 7 6 6 7 9 8 7 7 5 6 6 7 5 5 6 6 5 6 7 7
10 13 11 8 12 12 10 10 10 5 11 11 10 10 9 8 9 8 9 8 5 1 7 8 7 7 6 4 6 5 7 7 5 7 6 6 4 4 6 6 5 4 6
9 6 8 9 10 11 12 12 11 12 11 9 9 8 9 9 9 8 7 2 4 6 8 7 8 7 4 4 6 6 6 6 6 6 6 6 6 7 6 5 4 6 5
10 10 7 8 10 10 10 10 9 9 9 9 8 5 8 9 9 5 3 7 7 7 6 6 6 5 5 6 5 5 6 5 6 6 5 5 5 5 5 4 4 3 2
9 10 10 9 8 9 8 8 8 8 7 6 7 7 8 7 6 7 7 7 7 6 5 6 5 6 6 4 4 4 5 5 5 4 5 4 4 5 4 3 2 0 1
5 3 6 7 9 9 9 9 8 8 8 7 7 8 10 6 6 5 6 7 6 5 4 4 4 4 4 3 3 3 4 5 3 3 3 3 3 3 3 1 1 3 4
6 7 8 8 8 9 9 8 8 8 8 8 7 7 5 6 5 4 4 4 4 3 3 3 5 4 2 4 4 4 4 4 2 2 1 2 2 2 1 3 4 4 5
9 11 11 10 9 9 7 8 9 9 9 8 8 9 8 7 5 4 4 4 3 4 3 3 2 3 2 3 3 3 3 3 1 2 3 3 3 3 4 4 6 7 7
3 5 5 6 7 10 10 10 9 9 9 9 8 7 7 6 5 4 4 4 4 4 3 4 3 2 3 4 3 5 5 4 4 4 4 4 5 5 6 7 7 7 6
9 7 6 5 3 8 7 10 10 10 9 8 7 6 5 4 4 4 4 4 4 4 4 4 4 4 5 3 2 5 7 4 3 2 6 5 7 7 7 5 5 5 6
9 11 10 7 7 6 4 10 11 10 10 8 7 6 5 5 4 4 4 5 5 5 4 5 5 6 5 6 5 10 5 2 3 8 2 8 8 7 6 7 10 8 9
Wind_Direction
189 182 184 186 191 193 192 197 203 201 202 204 206 204 206 210 210 212 239 244 213 231 263 229 235 249 262 195 218 245 251 253 262 272 289 248 269 275 291 241 250 258 250
186 180 188 187 193 192 202 194 203 205 205 206 205 208 211 215 211 216 226 237 216 219 225 237 243 245 213 239 261 261 285 294 280 275 282 289 267 276 276 273 270 268 265
185 185 186 189 192 200 195 202 201 200 207 209 207 215 217 217 219 233 233 233 229 234 246 251 247 249 249 267 276 278 253 234 227 249 269 272 278 273 272 252 252 265 263
184 189 189 193 192 198 195 197 204 196 208 206 211 215 222 223 222 230 223 225 232 239 245 254 255 255 256 256 257 258 255 262 262 252 263 277 285 278 273 280 283 260 246
188 188 193 194 195 202 197 195 198 206 217 221 221 226 229 234 235 218 235 243 248 251 256 250 244 254 273 274 273 260 276 263 264 277 264 257 243 249 235 256 263 272 274
192 194 190 189 192 199 199 200 201 204 214 222 226 230 238 252 118 114 289 272 268 267 263 263 271 238 233 228 233 250 266 260 261 276 286 304 305 296 296 290 281 275 270
193 196 187 185 193 198 198 203 206 203 207 212 220 227 234 237 142 173 198 271 265 252 262 265 266 263 261 260 237 238 240 235 239 263 267 266 281 280 286 278 265 264 265
192 193 188 186 192 194 197 197 202 201 201 208 212 220 227 229 174 212 203 254 257 259 257 257 263 273 272 282 274 264 261 258 239 238 265 281 278 291 284 280 282 277 270
186 189 186 189 187 191 192 186 189 187 179 184 189 204 225 233 183 199 209 243 248 248 247 247 250 258 175 173 263 271 281 279 199 159 123 307 296 280 277 287 272 266 270
188 188 185 182 192 193 193 179 172 171 175 188 217 219 239 256 246 185 209 245 241 245 231 229 187 249 132 170 262 278 280 282 284 303 291 248 234 259 220 252 272 272 275
189 181 183 184 190 185 121 181 190 180 203 202 218 218 248 264 251 179 208 250 269 261 259 250 248 130 150 193 260 275 283 327 287 266 268 271 272 264 266 240 249 269 283
184 172 173 176 191 153 153 175 203 208 232 208 228 224 231 229 247 168 210 255 318 269 270 285 101 117 181 206 220 224 68 270 262 272 276 277 271 271 280 302 269 255 204
179 175 172 173 177 156 170 201 229 200 233 218 220 216 211 207 197 144 200 226 217 237 294 69 104 174 216 226 226 206 195 236 259 266 273 274 279 288 302 265 241 227 204
187 186 178 171 168 162 182 203 196 202 208 212 218 225 222 207 212 185 194 190 174 226 176 198 188 272 283 285 230 207 237 255 281 291 289 287 287 283 263 284 257 218 233
186 184 186 193 190 172 188 186 194 191 202 199 215 212 212 210 216 156 170 218 235 77 325 256 267 281 296 295 287 271 268 268 269 316 302 287 293 283 278 259 251 235 252
182 178 176 185 166 180 162 143 44 75 82 78 61 32 111 84 70 94 98 78 76 81 248 267 281 299 300 309 302 303 292 278 289 304 299 307 276 270 304 239 236 242 265
191 170 162 161 180 170 173 177 171 90 73 68 69 67 57 76 105 114 114 116 102 177 250 269 280 288 300 314 286 296 296 302 306 281 282 275 277 294 299 292 273 278 298
191 170 167 177 172 173 178 188 184 177 179 170 71 62 79 112 123 124 136 195 213 216 261 277 284 294 336 285 268 258 247 268 289 292 292 285 290 306 283 260 290 299 290
178 167 181 178 178 180 177 185 196 170 178 173 141 142 108 95 103 116 191 255 272 277 288 296 299 309 258 228 246 266 282 287 298 294 282 289 295 296 293 295 298 321 326
208 157 177 178 174 181 178 190 188 179 176 159 180 157 145 169 182 192 211 227 247 261 279 284 297 301 329 291 278 291 282 281 283 290 293 312 298 296 292 292 304 326 136
169 184 176 179 169 188 180 189 183 176 181 175 181 126 158 209 215 205 200 197 232 251 290 291 300 277 275 273 260 265 269 274 275 287 276 282 310 302 313 315 107 116 118
176 172 171 188 178 184 177 187 183 187 179 173 150 121 122 228 242 213 214 218 233 225 276 275 284 291 245 250 226 237 253 272 267 271 294 255 262 247 183 132 123 120 125
218 179 191 181 176 168 180 196 187 186 176 171 168 153 180 214 216 215 212 224 210 218 210 243 255 280 235 201 227 226 239 244 228 187 179 176 177 159 143 140 142 144 142
143 39 196 178 192 180 188 190 189 191 178 174 172 170 184 194 204 196 235 207 202 209 196 223 235 270 193 224 182 192 174 165 161 163 193 160 141 162 154 155 135 133 133
148 159 161 158 159 219 185 194 188 182 189 176 177 176 183 203 212 204 213 212 205 222 202 228 227 190 200 193 57 66 82 21 273 349 169 133 113 140 136 129 121 130 155
174 173 176 163 186 226 213 213 183 185 188 185 186 183 187 208 213 218 210 211 210 208 235 212 206 231 186 181 141 112 137 227 271 313 291 153 158 155 168 166 194 204 195